Simultaneous Nadir Overpasses (SNOs) Predictions

Prediction of SNOs between GOES-17 and METOP-A Satellite Orbit:

Table of predicted SNOs for the next 14.0 days since TLE Epoch: 8/23/2019
Index Date Time (GOES-17) GOES-17 Lat,Lon METOP-A Lat,Lon Distance(km) Time Diff (sec)
1 08/24/2019 06:13:18 -0.01,-137.21 -0.11,-137.68 53.70 80
2 08/26/2019 18:11:32 0.02,-137.21 0.03,-137.29 9.17 80
3 08/29/2019 06:07:14 -0.02,-137.18 0.03,-136.93 28.57 80
4 08/30/2019 18:28:48 0.02,-137.17 0.96,-141.52 495.19 80
5 08/31/2019 18:05:28 0.01,-137.16 -0.10,-136.53 71.09 80
6 09/02/2019 06:27:11 -0.02,-137.14 -0.89,-141.17 458.45 80
7 09/03/2019 06:03:51 -0.02,-137.13 0.17,-136.18 107.60 80
8 09/04/2019 18:25:24 0.02,-137.11 0.83,-140.77 416.96 80
9 09/05/2019 18:02:06 0.02,-137.09 -0.29,-135.79 148.75 80




NCC Satellite Simultaneous Nadir Overpasses (SNOs) Prediction Service
